Content
SEND FEEDBACK

Daily
Averages
Monthly
Summary
United States of America

NORWALK, OHIO


Home > North America > United States > Ohio
Elevation: 695 feet     Latitude: 41 16N     Longitude: 082 37W

WEATHER
 
SELECT A DAY
Number of Records: 185,502;   Date Range: 10/8/98 - 12/17/14
 
SHARE

PRINT THIS DATA

[ ← Previous Day ]
WEATHER ALMANAC - JANUARY 31, 2013
[ Next Day → ]
[ °C ]   °F
Weather ElementAverageHighLow
Temperature24.9 °F35.6 °F (12:36 am)18 °F (11:53 pm)
Dewpoint12.2 °F33.1 °F (12:53 am) (7:00 pm)
Humidity75.7 %100 % (8:17 am)52 % (10:53 pm)
Barometer29.69 in29.91 in (9:53 pm)29.32 in (12:36 am)
Wind Speed21.2 mph31.1 mph (9:53 am)
Wind Gust47.2 mph (12:36 am)
Weather ElementAverage
Visibility4.8 mi
Wind DirectionWNW (275.7 °)

Weather ElementTotal
Precipitation---
Heating Degree Days38.2 (Base 65)
Averaged from 72 records on January 31, 2013
WEATHER CONDITIONS BREAKOUT
WIND DIRECTION BREAKOUT
WEATHER BY HOUR - JANUARY 31, 2013
[ °C ]   °F
Local TimeTemperatureDewpointHumidityBarometerVisibilityWind DirectionWind SpeedGust SpeedPrecipitationEventsConditions
12:36 AM35.6 °F32.0 °F87 %29.32 in7.0 miWest (260°)28.8 mph47.2 mph0.00 inSnowLight Snow
12:39 AM35.6 °F32.0 °F87 %29.33 in9.0 miWest (280°)20.7 mph35.7 mph0.00 inSnowLight Snow
12:53 AM35.1 °F33.1 °F92 %29.34 in9.0 miWest (280°)26.5 mph36.8 mph0.00 inSnowLight Snow
1:53 AM34.0 °F0.0 °F29.39 in9.0 miWest (270°)26.5 mph38.0 mph0.00 inSnowLight Snow
2:06 AM33.8 °F0.0 °F29.39 in9.0 miWest (280°)15.0 mph32.2 mph0.00 inOvercast
2:39 AM33.8 °F0.0 °F29.42 in9.0 miWest (270°)25.3 mph34.5 mph0.00 inSnowLight Snow
2:53 AM33.1 °F0.0 °F29.44 in9.0 miWest (280°)25.3 mph36.8 mph0.00 inSnowLight Snow
3:53 AM32.0 °F0.0 °F29.46 in9.0 miWest (280°)25.3 mph33.4 mph0.00 inSnowLight Snow
4:49 AM30.2 °F0.0 °F29.49 in6.0 miWest (270°)28.8 mph39.1 mph0.00 inSnowLight Snow
4:53 AM30.0 °F0.0 °F29.50 in5.0 miWest (270°)27.6 mph42.6 mph0.00 inSnowLight Snow
5:05 AM28.4 °F0.0 °F29.51 in2.5 miWest (280°)29.9 mph40.3 mph0.00 inSnowLight Snow
5:10 AM28.4 °F0.0 °F29.51 in6.0 miWest (280°)25.3 mph40.3 mph0.00 inSnowLight Snow
5:53 AM28.0 °F0.0 °F29.55 in8.0 miWNW (290°)24.2 mph36.8 mph0.00 inSnowLight Snow
6:36 AM28.4 °F0.0 °F29.56 in3.0 miWNW (290°)23.0 mph34.5 mph0.00 inSnowLight Snow
6:43 AM26.6 °F0.0 °F29.57 in2.0 miWNW (290°)18.4 mph32.2 mph0.00 inSnowLight Snow
6:53 AM26.1 °F0.0 °F29.59 in3.0 miWest (270°)23.0 mph34.5 mph0.00 inSnowLight Snow
7:27 AM24.8 °F0.0 °F29.60 in2.5 miWest (270°)18.4 mph33.4 mph0.00 inSnowLight Snow
7:43 AM26.6 °F0.0 °F29.61 in8.0 miWest (270°)24.2 mph39.1 mph0.00 inSnowLight Snow
7:53 AM25.0 °F0.0 °F29.64 in9.0 miWest (270°)23.0 mph34.5 mph0.00 inSnowLight Snow
8:05 AM24.8 °F0.0 °F29.63 in1.0 miWest (280°)28.8 mph40.3 mph0.00 inSnowLight Snow
8:12 AM24.8 °F0.0 °F29.64 in0.5 miWest (280°)21.9 mph40.3 mph0.00 inSnowSnow
8:17 AM24.8 °F24.8 °F100 %29.64 in3.0 miWest (280°)18.4 mph31.1 mph0.00 inSnowLight Snow
8:32 AM24.8 °F24.8 °F100 %29.65 in2.5 miWest (270°)20.7 mph34.5 mph0.00 inSnowLight Snow
8:39 AM24.8 °F0.0 °F29.65 in1.0 miWest (270°)18.4 mph27.6 mph0.00 inSnowLight Snow
8:45 AM24.8 °F24.8 °F100 %29.65 in3.0 miWest (260°)18.4 mph26.5 mph0.00 inSnowLight Snow
8:53 AM24.1 °F24.1 °F100 %29.67 in5.0 miWest (280°)18.4 mph0.00 inSnowLight Snow
9:04 AM24.8 °F24.8 °F100 %29.66 in2.0 miWest (280°)19.6 mph33.4 mph0.00 inSnowLight Snow
9:16 AM23.0 °F23.0 °F100 %29.67 in0.8 miWest (270°)24.2 mph36.8 mph0.00 inSnowLight Snow
9:32 AM24.8 °F24.8 °F100 %29.67 in1.2 miWest (270°)20.7 mph32.2 mph0.00 inSnowLight Snow
9:37 AM24.8 °F23.0 °F93 %29.67 in3.0 miWest (270°)23.0 mph32.2 mph0.00 inSnowLight Snow
9:53 AM25.0 °F21.9 °F88 %29.70 in9.0 miWest (260°)31.1 mph38.0 mph0.00 inSnowLight Snow
10:53 AM24.1 °F14.0 °F65 %29.73 in8.0 miWest (270°)23.0 mph39.1 mph0.00 inSnowLight Snow
11:02 AM23.0 °F14.0 °F68 %29.72 in9.0 miWest (270°)20.7 mph35.7 mph0.00 inSnowLight Snow
11:16 AM24.8 °F12.2 °F59 %29.72 in9.0 miWest (270°)25.3 mph33.4 mph0.00 inSnowLight Snow
11:28 AM24.8 °F12.2 °F59 %29.73 in9.0 miWest (260°)26.5 mph36.8 mph0.00 inSnowLight Snow
11:53 AM23.0 °F12.9 °F65 %29.76 in5.0 miWest (270°)25.3 mph34.5 mph0.00 inSnowLight Snow
12:46 PM21.2 °F15.8 °F80 %29.75 in1.8 miWest (260°)26.5 mph34.5 mph0.00 inSnowLight Snow
12:53 PM21.9 °F15.1 °F75 %29.77 in1.2 miWest (260°)23.0 mph34.5 mph0.00 inSnowLight Snow
12:57 PM21.2 °F14.0 °F74 %29.74 in3.0 miWest (260°)20.7 mph31.1 mph0.00 inSnowLight Snow
1:03 PM21.2 °F14.0 °F74 %29.74 in2.5 miWest (270°)20.7 mph31.1 mph0.00 inSnowLight Snow
1:07 PM21.2 °F15.8 °F80 %29.74 in0.8 miWest (270°)25.3 mph33.4 mph0.00 inSnowLight Snow
1:17 PM21.2 °F15.8 °F80 %29.75 in1.2 miWest (270°)19.6 mph28.8 mph0.00 inSnowLight Snow
1:20 PM21.2 °F15.8 °F80 %29.75 in3.0 miWest (270°)23.0 mph28.8 mph0.00 inSnowLight Snow
1:26 PM21.2 °F15.8 °F80 %29.75 in2.5 miWest (270°)16.1 mph28.8 mph0.00 inSnowLight Snow
1:38 PM21.2 °F12.2 °F68 %29.75 in3.0 miWest (270°)19.6 mph28.8 mph0.00 inSnowLight Snow
1:53 PM23.0 °F10.9 °F60 %29.78 in9.0 miWest (280°)18.4 mph28.8 mph0.00 inSnowLight Snow
2:24 PM24.8 °F14.0 °F64 %29.76 in2.5 miWest (280°)19.6 mph33.4 mph0.00 inSnowLight Snow
2:27 PM23.0 °F15.8 °F74 %29.76 in1.8 miWest (280°)23.0 mph33.4 mph0.00 inSnowLight Snow
2:35 PM23.0 °F15.8 °F74 %29.76 in1.8 miWest (270°)19.6 mph36.8 mph0.00 inSnowLight Snow
2:48 PM24.8 °F15.8 °F69 %29.76 in1.8 miWest (260°)24.2 mph29.9 mph0.00 inSnowLight Snow
2:53 PM23.0 °F16.0 °F74 %29.79 in0.8 miWest (280°)20.7 mph35.7 mph0.00 inSnowLight Snow
3:07 PM24.8 °F15.8 °F69 %29.76 in2.0 miWest (280°)17.3 mph27.6 mph0.00 inSnowLight Snow
3:11 PM24.8 °F15.8 °F69 %29.76 in5.0 miWNW (290°)19.6 mph31.1 mph0.00 inSnowLight Snow
3:53 PM26.1 °F14.0 °F60 %29.78 in9.0 miWest (280°)20.7 mph29.9 mph0.00 inSnowLight Snow
4:28 PM24.8 °F17.6 °F74 %29.77 in1.8 miWest (260°)20.7 mph33.4 mph0.00 inSnowLight Snow
4:38 PM24.8 °F17.6 °F74 %29.77 in3.0 miWest (270°)18.4 mph28.8 mph0.00 inSnowLight Snow
4:50 PM24.8 °F17.6 °F74 %29.77 in2.5 miWest (280°)18.4 mph28.8 mph0.00 inSnowLight Snow
4:53 PM25.0 °F17.1 °F72 %29.80 in2.0 miWest (280°)16.1 mph27.6 mph0.00 inSnowLight Snow
5:00 PM24.8 °F15.8 °F69 %29.77 in3.0 miWest (280°)19.6 mph26.5 mph0.00 inSnowLight Snow
5:53 PM24.1 °F10.0 °F55 %29.82 in9.0 miWest (270°)24.2 mph32.2 mph0.00 inMostly Cloudy
6:53 PM24.1 °F10.0 °F55 %29.84 in9.0 miWest (280°)20.7 mph33.4 mph0.00 inSnowLight Snow
7:32 PM21.2 °F14.0 °F74 %29.83 in3.0 miWest (280°)18.4 mph26.5 mph0.00 inSnowLight Snow
7:36 PM21.2 °F15.8 °F80 %29.83 in1.8 miWest (280°)18.4 mph25.3 mph0.00 inSnowLight Snow
7:53 PM21.0 °F16.0 °F81 %29.88 in1.8 miWNW (290°)12.7 mph0.00 inSnowLight Snow
8:03 PM21.2 °F15.8 °F80 %29.84 in3.0 miWNW (290°)17.3 mph24.2 mph0.00 inSnowLight Snow
8:16 PM21.2 °F12.2 °F68 %29.85 in8.0 miWNW (290°)17.3 mph27.6 mph0.00 inSnowLight Snow
8:42 PM19.4 °F14.0 °F80 %29.86 in2.5 miWNW (290°)12.7 mph27.6 mph0.00 inSnowLight Snow
8:49 PM19.4 °F12.2 °F74 %29.86 in7.0 miWNW (290°)13.8 mph20.7 mph0.00 inSnowLight Snow
8:53 PM19.9 °F12.0 °F71 %29.90 in9.0 miWNW (300°)16.1 mph0.00 inOvercast
9:53 PM19.9 °F7.0 °F57 %29.91 in10.0 miWNW (290°)12.7 mph24.2 mphOvercast
10:53 PM19.0 °F3.9 °F52 %29.91 in10.0 miWNW (290°)15.0 mphClear
11:53 PM18.0 °F5.0 °F57 %29.91 in10.0 miWest (280°)11.5 mphClear
Hourly data recorded from KLPR, located miles away from Norwalk, Ohio







STORIES FROM OUR PARTNERS